Location: Newark
(45.2500°N, 7.5833°E)
Time: 20:43:13
(UTC+00:00)

Tiros 1 despin weight - Pass Details

Date: 31 January 2020
Orbit: 594 x 642 km, 48.2° (Epoch: 20 February)

Event Time Altitude Azimuth Distance (km) Brightness Sun altitude
Rises 09:34:59 0° 250° (WSW) 2,841 ? 20.9°
Reaches altitude 10° 09:37:15 10° 251° (WSW) 1,946 ? 21.1°
Maximum altitude 09:41:44 87° 338° (NNW) 616 ? 21.5°
Drops below altitude 10° 09:46:18 10° 71° (ENE) 1,981 ? 21.9°
Sets 09:48:37 0° 72° (ENE) 2,896 ? 22.1°
